Historyczne dane pomiarowe

Dodano dane terminowe – wersja testowa.

Dane z okresu 1951-2019

Wersja bazy: 1.34 [2019-03-16, lista zmian], aktualizacja planowana na 2019-04-15

Dane meteo z obszaru Polski uzyskane na podstawie danych udostępnionych przez Instytut Meteorologii i Gospodarki Wodnej – Państwowy Instytut Badawczy.

 

Wybierz Datę:    

       

TemperaturaWilgotnośćWiatrCiśnienieOpadyŚniegCzas trwania zjawisk
 Stacja t tx tn tng RH VA  wxwx mslp ppp RRR   cm mm wxwxwxwxwxwxwx
1959-10-10 5.5 14.7 -2.3- 78.5- 1.3 0.3---- 0.0------------
1959-10-09 5.5 13.9 -0.3- 79.8- 0.0 0.7---- 0.0------------
1959-10-08 9.5 16.4 -0.1- 81.0- 0.7 0.7---- 0.0------------
1959-10-07 6.5 17.0 -0.3- 80.0- 0.3 0.3---- 0.0------------
1959-10-06 5.1 13.4 -1.1- 80.5- 1.0 0.3---- 0.0------------
1959-10-05 3.9 11.1 -1.3- 75.8- 0.7 0.3---- 0.0------------
1959-10-04 6.4 12.9 4.1- 77.0- 1.0 1.3---- 0.0------------
1959-10-03 9.0 11.9 1.4- 90.5- 6.0 0.7---- 3.9------------
1959-10-02 8.1 17.2 4.0- 89.5- 5.3 0.3---- 0.0------------
1959-10-01 10.1 16.4 5.5- 88.5- 5.3 0.7---- 0.0------------
1959-09-30 6.8 14.2 0.2- 83.3- 5.0 0.3---- 0.0------------
1959-09-29 5.9 13.9 1.7- 84.5- 4.0 0.3---- 0.0------------
1959-09-28 8.7 11.9 7.2- 72.0- 4.3 0.7---- 1.6------------
1959-09-27 11.7 16.7 8.1- 74.8- 6.0 2.0---- 1.5------------
1959-09-26 10.1 17.0 -0.6- 75.8- 4.0 0.3---- 0.7------------
1959-09-25 7.3 15.9 2.4- 80.5- 1.7 0.7---- 0.0------------
1959-09-24 9.4 16.0 7.1- 77.0- 4.0 1.3---- 2.0------------
1959-09-23 12.8 16.6 11.1- 72.5- 6.0 3.0---- 16.4------------
1959-09-22 13.8 17.1 10.9- 70.5- 6.0 3.3---- 4.9------------
1959-09-21 12.8 18.7 9.3- 82.3- 6.3 1.3---- 0.0------------
1959-09-20 13.9 19.1 7.4- 67.0- 3.3 1.7---- 0.0------------
1959-09-19 14.1 19.5 3.9- 74.3- 5.0 4.0---- 0.0------------
1959-09-18 9.4 15.8 4.3- 73.0- 2.3 0.7---- 0.0------------
1959-09-17 9.4 13.1 4.6- 65.5- 5.0 2.7---- 0.0------------
1959-09-16 11.1 15.2 7.8- 74.0- 5.0 2.7---- 1.2------------
1959-09-15 13.6 18.8 5.8- 77.8- 4.0 1.7---- 0.2------------
1959-09-14 10.0 16.7 5.4- 78.8- 2.7 1.0---- 0.0------------
1959-09-13 14.2 19.9 9.1- 85.3- 7.3 0.7---- 1.2------------
1959-09-12 14.2 21.8 9.5- 85.8- 4.0 0.7---- 0.0------------
1959-09-11 13.5 19.9 8.7- 83.8- 2.7 0.7---- 0.0------------
1959-09-10 16.5 22.6 8.5- 82.0- 2.7 1.3---- 0.0------------
1959-09-09 13.9 21.2 9.5- 80.0- 2.7 0.0---- 0.0------------
1959-09-08 15.1 19.8 9.2- 86.3- 5.3 1.3---- 0.0------------
1959-09-07 13.0 23.0 4.6- 82.0- 0.3 0.3---- 0.0------------
1959-09-06 15.0 20.8 9.7- 81.8- 2.3 1.3---- 0.0------------
1959-09-05 15.7 20.0 9.6- 71.8- 4.3 1.3---- 0.0------------
1959-09-04 15.0 21.8 8.0- 83.3- 2.7 0.0---- 0.0------------
1959-09-03 12.8 19.3 6.7- 83.5- 1.7 1.0---- 0.0------------
1959-09-02 14.0 19.5 5.0- 81.8- 5.3 0.3---- 0.0------------
1959-09-01 10.7 16.6 4.8- 83.0- 4.7 0.7---- 0.0------------
1959-08-31 11.1 17.4 7.8- 81.5- 4.0 2.3---- 1.6------------
1959-08-30 11.8 15.2 9.0- 88.5- 8.0 0.7---- 27.9------------
1959-08-29 11.4 16.8 6.7- 67.5- 5.3 1.3---- 2.6------------
1959-08-28 13.3 16.5 11.1- 67.8- 7.0 1.7---- 3.9------------
1959-08-27 16.8 19.6 15.0- 49.3- 2.7 5.0---- 0.0------------
1959-08-26 18.4 22.5 15.0- 66.3- 6.0 3.7---- 0.0------------
1959-08-25 20.7 22.5 15.9- 79.3- 7.3 7.7---- 0.9------------
1959-08-24 18.6 25.7 12.9- 85.5- 2.7 1.3---- 0.0------------
1959-08-23 22.0 31.0 13.2- 75.3- 2.0 0.7---- 0.0------------
1959-08-22 22.1 29.8 14.1- 66.5- 0.3 1.3---- 0.0------------
1959-08-21 20.6 28.7 11.2- 69.0- 0.0 0.3---- 0.0------------
1959-08-20 17.5 26.0 9.1- 82.8- 2.0 1.0---- 0.0------------
1959-08-19 17.2 25.1 12.1- 85.0- 1.3 1.0---- 0.0------------
1959-08-18 18.8 26.0 12.9- 85.3- 2.7 0.3---- 0.0------------
1959-08-17 18.3 25.5 12.3- 82.8- 3.0 0.0---- 2.1------------
1959-08-16 20.0 25.9 13.7- 65.0- 2.0 1.3---- 0.0------------
1959-08-15 20.4 26.8 15.3- 55.8- 1.0 3.0---- 0.0------------
1959-08-14 22.1 28.0 17.7- 56.8- 0.0 4.0---- 0.0------------
1959-08-13 23.5 28.7 16.1- 63.3- 1.3 1.7---- 0.0------------
1959-08-12 22.5 28.9 17.3- 65.5- 1.0 1.7---- 0.0------------
152.0 ms

 

Źródłem pochodzenia danych jest Instytut Meteorologii i Gospodarki Wodnej – Państwowy Instytut Badawczy. Dane Instytutu Meteorologii i Gospodarki Wodnej – Państwowego Instytutu Badawczego zostały przetworzone.

Dane źródłowe można odnaleźć na stronie https://dane.imgw.pl